| time (UTC) | temp F | wind direction | speed MPH | gust MPH | rain 1hr in | rain 24hr in | rain mn in | humidity % | barometer mb |
| 20260905130051 | 58 | 0 | 0.0 | 2.0 | 0.00 | 0.00 | 0.00 | 93 | 1012.9 |
| 20260905125536 | 58 | 0 | 0.0 | 2.0 | 0.00 | 0.00 | 0.00 | 93 | 1012.9 |
| 20260905125036 | 58 | 0 | 0.0 | 2.0 | 0.00 | 0.00 | 0.00 | 93 | 1013.0 |
| 20260905124550 | 58 | 277 | 0.0 | 2.0 | 0.00 | 0.00 | 0.00 | 93 | 1013.0 |
| 20260905124039 | 58 | 0 | 0.0 | 2.0 | 0.00 | 0.00 | 0.00 | 93 | 1013.0 |
| 20260905123545 | 58 | 0 | 0.0 | 2.0 | 0.00 | 0.00 | 0.00 | 93 | 1013.0 |
| 20260905123058 | 58 | 277 | 0.0 | 3.0 | 0.00 | 0.00 | 0.00 | 93 | 1013.0 |
| 20260905122538 | 58 | 0 | 1.0 | 3.0 | 0.00 | 0.00 | 0.00 | 93 | 1013.1 |
| 20260905122039 | 58 | 286 | 0.0 | 3.0 | 0.00 | 0.00 | 0.00 | 93 | 1013.1 |
| 20260905121553 | 58 | 286 | 1.0 | 3.0 | 0.00 | 0.00 | 0.00 | 93 | 1013.0 |
| 20260905121037 | 58 | 281 | 1.0 | 4.0 | 0.00 | 0.00 | 0.00 | 93 | 1013.1 |
| 20260905120540 | 58 | 302 | 1.0 | 4.0 | 0.00 | 0.00 | 0.00 | 93 | 1013.0 |
| 20260905120107 | 58 | 0 | 0.0 | 4.0 | 0.00 | 0.00 | 0.00 | 93 | 1013.0 |
| 20260905115537 | 58 | 300 | 1.0 | 4.0 | 0.00 | 0.00 | 0.00 | 93 | 1012.9 |
| 20260905115038 | 58 | 265 | 1.0 | 3.0 | 0.00 | 0.00 | 0.00 | 93 | 1013.0 |
| 20260905114550 | 58 | 288 | 2.0 | 4.0 | 0.00 | 0.00 | 0.00 | 93 | 1013.0 |
| 20260905114037 | 58 | 271 | 2.0 | 4.0 | 0.00 | 0.00 | 0.00 | 93 | 1013.0 |
| 20260905113538 | 58 | 298 | 1.0 | 6.0 | 0.00 | 0.00 | 0.00 | 93 | 1013.1 |
| 20260905113057 | 59 | 264 | 1.0 | 6.0 | 0.00 | 0.00 | 0.00 | 93 | 1013.1 |
| 20260905112538 | 58 | 244 | 1.0 | 3.0 | 0.00 | 0.00 | 0.00 | 93 | 1013.1 |
| 20260905112038 | 58 | 263 | 1.0 | 3.0 | 0.00 | 0.00 | 0.00 | 93 | 1013.1 |
| 20260905111637 | 58 | 0 | 1.0 | 3.0 | 0.00 | 0.00 | 0.00 | 93 | 1013.2 |
| 20260905111038 | 58 | 273 | 1.0 | 3.0 | 0.00 | 0.00 | 0.00 | 93 | 1013.1 |
| 20260905110537 | 58 | 262 | 0.0 | 2.0 | 0.00 | 0.00 | 0.00 | 93 | 1013.1 |
| 20260905110051 | 58 | 0 | 0.0 | 2.0 | 0.00 | 0.00 | 0.00 | 93 | 1013.1 |
| 20260905105536 | 58 | 262 | 1.0 | 2.0 | 0.00 | 0.00 | 0.00 | 93 | 1013.1 |
| 20260905105038 | 58 | 281 | 0.0 | 2.0 | 0.00 | 0.00 | 0.00 | 93 | 1013.1 |
| 20260905104548 | 58 | 281 | 0.0 | 3.0 | 0.00 | 0.00 | 0.00 | 93 | 1013.1 |
| 20260905104038 | 58 | 274 | 1.0 | 3.0 | 0.00 | 0.00 | 0.00 | 93 | 1013.1 |
| 20260905103538 | 58 | 281 | 1.0 | 3.0 | 0.00 | 0.00 | 0.00 | 93 | 1013.1 |
| 20260905103051 | 58 | 273 | 1.0 | 3.0 | 0.00 | 0.00 | 0.00 | 93 | 1013.2 |
| 20260905102538 | 59 | 261 | 1.0 | 3.0 | 0.00 | 0.00 | 0.00 | 93 | 1013.2 |
| 20260905102037 | 59 | 263 | 1.0 | 2.0 | 0.00 | 0.00 | 0.00 | 93 | 1013.3 |
| 20260905101600 | 59 | 0 | 1.0 | 2.0 | 0.00 | 0.00 | 0.00 | 93 | 1013.3 |
| 20260905101037 | 59 | 248 | 0.0 | 3.0 | 0.00 | 0.00 | 0.00 | 93 | 1013.4 |
| 20260905100537 | 59 | 248 | 1.0 | 3.0 | 0.00 | 0.00 | 0.00 | 93 | 1013.4 |
| 20260905100107 | 59 | 274 | 1.0 | 3.0 | 0.00 | 0.00 | 0.00 | 93 | 1013.4 |
| 20260905095537 | 59 | 297 | 1.0 | 3.0 | 0.00 | 0.01 | 0.00 | 93 | 1013.4 |
| 20260905095037 | 59 | 283 | 0.0 | 4.0 | 0.00 | 0.01 | 0.00 | 93 | 1013.4 |
| 20260905094552 | 59 | 245 | 0.0 | 4.0 | 0.00 | 0.01 | 0.00 | 93 | 1013.4 |
| 20260905094040 | 59 | 304 | 1.0 | 4.0 | 0.00 | 0.01 | 0.00 | 93 | 1013.4 |
| 20260905093540 | 59 | 263 | 1.0 | 4.0 | 0.00 | 0.01 | 0.00 | 93 | 1013.5 |
| 20260905093057 | 59 | 280 | 1.0 | 4.0 | 0.00 | 0.01 | 0.00 | 93 | 1013.5 |
| 20260905092538 | 59 | 325 | 1.0 | 4.0 | 0.00 | 0.01 | 0.00 | 93 | 1013.5 |
| 20260905092038 | 59 | 273 | 0.0 | 6.0 | 0.00 | 0.01 | 0.00 | 93 | 1013.6 |
| 20260905091604 | 59 | 268 | 1.0 | 6.0 | 0.00 | 0.01 | 0.00 | 93 | 1013.7 |
| 20260905091037 | 59 | 286 | 1.0 | 4.0 | 0.00 | 0.01 | 0.00 | 93 | 1013.9 |
| 20260905090539 | 59 | 0 | 0.0 | 7.0 | 0.00 | 0.01 | 0.00 | 93 | 1013.9 |
| 20260905090054 | 59 | 0 | 2.0 | 7.0 | 0.00 | 0.01 | 0.00 | 93 | 1013.8 |
| 20260905085541 | 59 | 244 | 1.0 | 4.0 | 0.00 | 0.01 | 0.00 | 93 | 1013.8 |
| 20260905085037 | 59 | 242 | 1.0 | 2.0 | 0.00 | 0.01 | 0.00 | 93 | 1013.8 |
| 20260905084553 | 59 | 0 | 1.0 | 3.0 | 0.00 | 0.01 | 0.00 | 93 | 1013.9 |
| 20260905084038 | 59 | 246 | 1.0 | 3.0 | 0.00 | 0.01 | 0.00 | 93 | 1013.9 |
| 20260905083538 | 59 | 226 | 1.0 | 3.0 | 0.00 | 0.01 | 0.00 | 93 | 1013.8 |
| 20260905083104 | 59 | 226 | 1.0 | 2.0 | 0.00 | 0.01 | 0.00 | 93 | 1013.8 |
| 20260905082537 | 59 | 240 | 1.0 | 3.0 | 0.00 | 0.01 | 0.00 | 93 | 1013.9 |
| 20260905082037 | 59 | 240 | 1.0 | 3.0 | 0.00 | 0.01 | 0.00 | 93 | 1013.9 |
| 20260905081552 | 59 | 0 | 1.0 | 3.0 | 0.00 | 0.01 | 0.00 | 93 | 1013.8 |
| 20260905081038 | 59 | 240 | 1.0 | 3.0 | 0.00 | 0.01 | 0.00 | 93 | 1013.8 |
| 20260905080538 | 59 | 235 | 1.0 | 3.0 | 0.00 | 0.01 | 0.00 | 93 | 1013.7 |
| 20260905075540 | 59 | 235 | 1.0 | 3.0 | 0.00 | 0.01 | 0.00 | 93 | 1013.7 |
| 20260905075037 | 59 | 235 | 1.0 | 3.0 | 0.00 | 0.01 | 0.00 | 93 | 1013.7 |
| 20260905074553 | 59 | 235 | 1.0 | 3.0 | 0.00 | 0.01 | 0.00 | 93 | 1013.8 |
| 20260905074038 | 59 | 235 | 1.0 | 3.0 | 0.00 | 0.01 | 0.00 | 93 | 1013.8 |
| 20260905073537 | 59 | 241 | 1.0 | 3.0 | 0.00 | 0.01 | 0.00 | 93 | 1013.7 |
| 20260905073053 | 59 | 238 | 2.0 | 3.0 | 0.00 | 0.01 | 0.00 | 93 | 1013.7 |
| 20260905072540 | 59 | 238 | 1.0 | 3.0 | 0.00 | 0.01 | 0.00 | 93 | 1013.6 |
| 20260905072037 | 59 | 237 | 1.0 | 3.0 | 0.00 | 0.01 | 0.00 | 93 | 1013.6 |
| 20260905071555 | 59 | 259 | 1.0 | 3.0 | 0.00 | 0.01 | 0.00 | 92 | 1013.7 |
| 20260905071038 | 59 | 259 | 1.0 | 3.0 | 0.00 | 0.01 | 0.00 | 92 | 1013.7 |
| 20260905070537 | 59 | 0 | 0.0 | 3.0 | 0.00 | 0.01 | 0.00 | 92 | 1013.6 |
| 20260905070101 | 59 | 259 | 1.0 | 3.0 | 0.00 | 0.01 | 0.00 | 92 | 1013.6 |
| 20260905065537 | 59 | 259 | 1.0 | 2.0 | 0.00 | 0.01 | 0.01 | 92 | 1013.6 |
| 20260905065037 | 59 | 259 | 0.0 | 2.0 | 0.00 | 0.01 | 0.01 | 92 | 1013.6 |
| 20260905064553 | 59 | 259 | 1.0 | 3.0 | 0.00 | 0.01 | 0.01 | 92 | 1013.6 |
| 20260905064037 | 59 | 259 | 1.0 | 3.0 | 0.00 | 0.01 | 0.01 | 92 | 1013.6 |
| 20260905063537 | 59 | 259 | 1.0 | 2.0 | 0.00 | 0.01 | 0.01 | 92 | 1013.6 |
| 20260905063100 | 59 | 254 | 1.0 | 3.0 | 0.00 | 0.01 | 0.01 | 92 | 1013.7 |
| 20260905062536 | 59 | 249 | 0.0 | 3.0 | 0.00 | 0.01 | 0.01 | 92 | 1013.7 |
| 20260905062037 | 59 | 0 | 1.0 | 3.0 | 0.00 | 0.01 | 0.01 | 92 | 1013.7 |
| 20260905061608 | 59 | 273 | 1.0 | 3.0 | 0.00 | 0.01 | 0.01 | 92 | 1013.6 |
| 20260905061036 | 59 | 255 | 1.0 | 3.0 | 0.00 | 0.01 | 0.01 | 92 | 1013.6 |
| 20260905060537 | 59 | 273 | 1.0 | 3.0 | 0.00 | 0.01 | 0.01 | 92 | 1013.7 |
| 20260905060057 | 59 | 0 | 1.0 | 3.0 | 0.00 | 0.01 | 0.01 | 92 | 1013.7 |
| 20260905055537 | 59 | 271 | 1.0 | 3.0 | 0.00 | 0.01 | 0.01 | 92 | 1013.7 |
| 20260905055037 | 59 | 276 | 1.0 | 2.0 | 0.00 | 0.01 | 0.01 | 92 | 1013.8 |
| 20260905054555 | 59 | 244 | 0.0 | 2.0 | 0.00 | 0.01 | 0.01 | 92 | 1013.8 |
| 20260905054037 | 59 | 227 | 1.0 | 2.0 | 0.00 | 0.01 | 0.01 | 92 | 1013.8 |
| 20260905053538 | 59 | 276 | 0.0 | 2.0 | 0.00 | 0.01 | 0.01 | 92 | 1013.8 |
| 20260905053058 | 59 | 276 | 1.0 | 2.0 | 0.00 | 0.01 | 0.01 | 92 | 1013.8 |
| 20260905052537 | 59 | 0 | 0.0 | 2.0 | 0.00 | 0.01 | 0.01 | 92 | 1013.9 |
| 20260905052037 | 59 | 276 | 1.0 | 2.0 | 0.00 | 0.01 | 0.01 | 92 | 1013.9 |
| 20260905051550 | 59 | 276 | 0.0 | 2.0 | 0.00 | 0.01 | 0.01 | 91 | 1014.0 |
| 20260905051037 | 59 | 276 | 0.0 | 3.0 | 0.00 | 0.01 | 0.01 | 91 | 1014.0 |
| 20260905050537 | 59 | 276 | 0.0 | 3.0 | 0.00 | 0.01 | 0.01 | 92 | 1014.1 |
| 20260905050100 | 59 | 277 | 0.0 | 3.0 | 0.00 | 0.01 | 0.01 | 92 | 1014.1 |
| 20260905045536 | 59 | 292 | 1.0 | 2.0 | 0.00 | 0.01 | 0.01 | 91 | 1014.0 |
| 20260905045037 | 59 | 269 | 1.0 | 6.0 | 0.00 | 0.01 | 0.01 | 91 | 1014.1 |
| 20260905044603 | 59 | 269 | 1.0 | 6.0 | 0.00 | 0.01 | 0.01 | 91 | 1014.0 |
| 20260905044036 | 59 | 290 | 2.0 | 6.0 | 0.00 | 0.01 | 0.01 | 91 | 1013.9 |
| 20260905043539 | 59 | 275 | 2.0 | 6.0 | 0.00 | 0.01 | 0.01 | 91 | 1013.9 |
| 20260905043051 | 59 | 272 | 1.0 | 4.0 | 0.00 | 0.01 | 0.01 | 91 | 1014.0 |
| 20260905042540 | 59 | 280 | 2.0 | 4.0 | 0.00 | 0.01 | 0.01 | 91 | 1013.9 |
| 20260905042037 | 59 | 278 | 0.0 | 3.0 | 0.00 | 0.01 | 0.01 | 91 | 1013.8 |
| 20260905041553 | 60 | 252 | 1.0 | 3.0 | 0.00 | 0.01 | 0.01 | 91 | 1013.8 |
| 20260905041037 | 60 | 238 | 1.0 | 6.0 | 0.00 | 0.01 | 0.01 | 91 | 1013.8 |
| 20260905040540 | 60 | 238 | 1.0 | 6.0 | 0.00 | 0.01 | 0.01 | 91 | 1013.8 |
| 20260905040059 | 60 | 275 | 1.0 | 6.0 | 0.00 | 0.01 | 0.01 | 91 | 1013.7 |
| 20260905035538 | 60 | 281 | 1.0 | 3.0 | 0.00 | 0.07 | 0.01 | 91 | 1013.8 |
| 20260905035038 | 60 | 0 | 1.0 | 3.0 | 0.00 | 0.07 | 0.01 | 90 | 1013.7 |
| 20260905034554 | 60 | 278 | 1.0 | 3.0 | 0.00 | 0.07 | 0.01 | 90 | 1013.7 |
| 20260905034037 | 60 | 244 | 0.0 | 3.0 | 0.00 | 0.07 | 0.01 | 90 | 1013.6 |
| 20260905033537 | 60 | 244 | 1.0 | 3.0 | 0.00 | 0.07 | 0.01 | 90 | 1013.6 |
| 20260905033053 | 60 | 259 | 1.0 | 4.0 | 0.00 | 0.07 | 0.01 | 90 | 1013.6 |
| 20260905032537 | 60 | 248 | 1.0 | 4.0 | 0.00 | 0.07 | 0.01 | 90 | 1013.5 |
| 20260905032038 | 60 | 277 | 1.0 | 5.0 | 0.00 | 0.07 | 0.01 | 90 | 1013.4 |
| 20260905031550 | 60 | 273 | 2.0 | 6.0 | 0.00 | 0.07 | 0.01 | 90 | 1013.4 |
| 20260905031037 | 60 | 280 | 2.0 | 6.0 | 0.00 | 0.07 | 0.01 | 89 | 1013.4 |
| 20260905030537 | 60 | 271 | 2.0 | 6.0 | 0.00 | 0.07 | 0.01 | 89 | 1013.4 |
| 20260905030123 | 60 | 275 | 2.0 | 6.0 | 0.00 | 0.07 | 0.01 | 89 | 1013.5 |
| 20260905025538 | 60 | 281 | 2.0 | 4.0 | 0.00 | 0.16 | 0.01 | 89 | 1013.4 |
| 20260905025038 | 60 | 284 | 1.0 | 3.0 | 0.00 | 0.16 | 0.01 | 89 | 1013.4 |
| 20260905024552 | 61 | 275 | 1.0 | 6.0 | 0.00 | 0.16 | 0.01 | 89 | 1013.4 |
| 20260905024037 | 61 | 271 | 2.0 | 6.0 | 0.00 | 0.16 | 0.01 | 88 | 1013.4 |
| 20260905023536 | 61 | 314 | 2.0 | 6.0 | 0.00 | 0.16 | 0.01 | 88 | 1013.4 |
| 20260905023049 | 61 | 288 | 0.0 | 7.0 | 0.00 | 0.16 | 0.01 | 88 | 1013.4 |
| 20260905022536 | 61 | 288 | 1.0 | 7.0 | 0.00 | 0.16 | 0.01 | 88 | 1013.5 |
| 20260905022038 | 61 | 304 | 1.0 | 6.0 | 0.00 | 0.16 | 0.01 | 88 | 1013.4 |
| 20260905021553 | 61 | 282 | 2.0 | 7.0 | 0.00 | 0.16 | 0.01 | 87 | 1013.4 |
| 20260905021037 | 61 | 285 | 3.0 | 7.0 | 0.00 | 0.16 | 0.01 | 87 | 1013.4 |
| 20260905020538 | 62 | 271 | 2.0 | 4.0 | 0.00 | 0.16 | 0.01 | 87 | 1013.4 |
| 20260905015537 | 62 | 272 | 2.0 | 7.0 | 0.00 | 0.22 | 0.01 | 87 | 1013.5 |
| 20260905015040 | 62 | 276 | 2.0 | 7.0 | 0.00 | 0.22 | 0.01 | 87 | 1013.4 |
| 20260905014556 | 62 | 287 | 2.0 | 7.0 | 0.00 | 0.22 | 0.01 | 87 | 1013.4 |
| 20260905014037 | 62 | 286 | 3.0 | 7.0 | 0.00 | 0.22 | 0.01 | 86 | 1013.6 |
| 20260905013536 | 63 | 274 | 2.0 | 7.0 | 0.00 | 0.22 | 0.01 | 87 | 1013.6 |
| 20260905013052 | 63 | 329 | 1.0 | 7.0 | 0.00 | 0.22 | 0.01 | 86 | 1013.6 |
| 20260905012540 | 63 | 290 | 3.0 | 7.0 | 0.00 | 0.22 | 0.01 | 86 | 1013.6 |
| 20260905012041 | 63 | 286 | 2.0 | 6.0 | 0.00 | 0.22 | 0.01 | 86 | 1013.5 |
| 20260905011553 | 63 | 309 | 1.0 | 8.0 | 0.00 | 0.22 | 0.01 | 86 | 1013.5 |
| 20260905011037 | 63 | 294 | 2.0 | 8.0 | 0.00 | 0.22 | 0.01 | 86 | 1013.5 |
| 20260905010537 | 63 | 247 | 3.0 | 8.0 | 0.00 | 0.22 | 0.01 | 86 | 1013.6 |
| 20260905010057 | 63 | 333 | 2.0 | 7.0 | 0.00 | 0.22 | 0.01 | 86 | 1013.5 |
| 20260905005537 | 63 | 308 | 2.0 | 7.0 | 0.00 | 0.22 | 0.01 | 86 | 1013.5 |
| 20260905005038 | 63 | 309 | 3.0 | 7.0 | 0.00 | 0.22 | 0.01 | 85 | 1013.4 |
| 20260905004612 | 63 | 294 | 2.0 | 7.0 | 0.00 | 0.22 | 0.01 | 85 | 1013.4 |
| 20260905004037 | 63 | 302 | 3.0 | 7.0 | 0.00 | 0.22 | 0.01 | 85 | 1013.4 |
| 20260905003537 | 63 | 294 | 2.0 | 7.0 | 0.00 | 0.22 | 0.01 | 85 | 1013.4 |
| 20260905003055 | 64 | 325 | 1.0 | 7.0 | 0.00 | 0.22 | 0.01 | 85 | 1013.4 |
| 20260905002536 | 64 | 316 | 2.0 | 7.0 | 0.00 | 0.22 | 0.01 | 85 | 1013.4 |
| 20260905002036 | 63 | 269 | 3.0 | 7.0 | 0.00 | 0.22 | 0.01 | 84 | 1013.4 |
| 20260905001550 | 64 | 276 | 3.0 | 7.0 | 0.00 | 0.22 | 0.01 | 83 | 1013.4 |
| 20260905001041 | 64 | 297 | 2.0 | 7.0 | 0.00 | 0.22 | 0.01 | 84 | 1013.4 |
| 20260905000538 | 64 | 345 | 3.0 | 7.0 | 0.00 | 0.22 | 0.01 | 83 | 1013.4 |
| 20260905000059 | 64 | 248 | 2.0 | 7.0 | 0.00 | 0.22 | 0.01 | 83 | 1013.4 |
| 20260904235537 | 64 | 289 | 2.0 | 7.0 | 0.00 | 0.22 | 0.01 | 83 | 1013.4 |
| 20260904235037 | 64 | 309 | 2.0 | 5.0 | 0.00 | 0.22 | 0.01 | 82 | 1013.4 |
| 20260904234556 | 64 | 321 | 2.0 | 6.0 | 0.00 | 0.22 | 0.01 | 83 | 1013.4 |
| 20260904234036 | 64 | 242 | 3.0 | 8.0 | 0.00 | 0.22 | 0.01 | 83 | 1013.4 |
| 20260904233538 | 64 | 270 | 2.0 | 8.0 | 0.00 | 0.22 | 0.01 | 83 | 1013.5 |
| 20260904233057 | 64 | 275 | 3.0 | 8.0 | 0.00 | 0.22 | 0.01 | 82 | 1013.5 |
| 20260904232537 | 65 | 254 | 2.0 | 7.0 | 0.00 | 0.22 | 0.01 | 83 | 1013.5 |
| 20260904232038 | 64 | 281 | 2.0 | 7.0 | 0.00 | 0.22 | 0.01 | 83 | 1013.5 |
| 20260904231552 | 64 | 319 | 2.0 | 7.0 | 0.00 | 0.22 | 0.01 | 82 | 1013.6 |
| 20260904231037 | 65 | 265 | 3.0 | 7.0 | 0.00 | 0.22 | 0.01 | 81 | 1013.6 |
| 20260904230537 | 65 | 215 | 2.0 | 7.0 | 0.00 | 0.22 | 0.01 | 82 | 1013.6 |
| 20260904225536 | 64 | 258 | 2.0 | 6.0 | 0.00 | 0.22 | 0.01 | 82 | 1013.8 |
| 20260904225036 | 65 | 257 | 3.0 | 7.0 | 0.00 | 0.22 | 0.01 | 83 | 1013.8 |
| 20260904224555 | 65 | 240 | 2.0 | 7.0 | 0.00 | 0.22 | 0.01 | 81 | 1013.9 |
| 20260904224038 | 64 | 275 | 3.0 | 8.0 | 0.00 | 0.22 | 0.01 | 83 | 1013.9 |
| 20260904223539 | 64 | 297 | 2.0 | 8.0 | 0.00 | 0.22 | 0.01 | 82 | 1014.0 |
| 20260904223056 | 65 | 271 | 3.0 | 8.0 | 0.00 | 0.22 | 0.01 | 82 | 1014.0 |
| 20260904222538 | 65 | 313 | 2.0 | 8.0 | 0.00 | 0.22 | 0.01 | 81 | 1014.0 |
| 20260904222041 | 65 | 259 | 2.0 | 7.0 | 0.00 | 0.22 | 0.01 | 81 | 1014.1 |
| 20260904221558 | 65 | 235 | 3.0 | 8.0 | 0.00 | 0.22 | 0.01 | 81 | 1014.0 |
| 20260904221036 | 65 | 234 | 2.0 | 8.0 | 0.00 | 0.22 | 0.01 | 82 | 1014.0 |
| 20260904220536 | 65 | 266 | 3.0 | 8.0 | 0.00 | 0.22 | 0.01 | 82 | 1014.0 |
| 20260904220054 | 65 | 221 | 2.0 | 6.0 | 0.00 | 0.22 | 0.01 | 83 | 1014.0 |
| 20260904215537 | 65 | 281 | 2.0 | 6.0 | 0.00 | 0.22 | 0.01 | 83 | 1014.0 |
| 20260904215037 | 65 | 226 | 2.0 | 5.0 | 0.00 | 0.22 | 0.01 | 83 | 1014.0 |
| 20260904214604 | 65 | 212 | 2.0 | 6.0 | 0.00 | 0.22 | 0.01 | 83 | 1014.1 |
| 20260904214037 | 65 | 227 | 2.0 | 6.0 | 0.00 | 0.22 | 0.01 | 83 | 1014.1 |
| 20260904213538 | 65 | 213 | 3.0 | 6.0 | 0.00 | 0.22 | 0.01 | 82 | 1014.1 |
| 20260904213056 | 65 | 180 | 3.0 | 7.0 | 0.00 | 0.22 | 0.01 | 83 | 1014.1 |
| 20260904212539 | 64 | 178 | 2.0 | 7.0 | 0.00 | 0.22 | 0.01 | 82 | 1014.2 |
| 20260904212036 | 65 | 241 | 3.0 | 7.0 | 0.00 | 0.22 | 0.01 | 82 | 1014.1 |
| 20260904211558 | 64 | 286 | 2.0 | 5.0 | 0.00 | 0.22 | 0.01 | 83 | 1014.1 |
| 20260904211040 | 64 | 202 | 2.0 | 6.0 | 0.00 | 0.22 | 0.01 | 82 | 1014.1 |
| 20260904210535 | 65 | 237 | 3.0 | 6.0 | 0.00 | 0.22 | 0.01 | 82 | 1014.1 |
| 20260904210055 | 65 | 298 | 3.0 | 7.0 | 0.00 | 0.22 | 0.01 | 82 | 1014.1 |
| 20260904205539 | 65 | 236 | 2.0 | 7.0 | 0.00 | 0.22 | 0.01 | 82 | 1014.1 |
| 20260904205036 | 64 | 244 | 2.0 | 6.0 | 0.00 | 0.22 | 0.01 | 82 | 1014.2 |
| 20260904204550 | 65 | 223 | 2.0 | 8.0 | 0.00 | 0.22 | 0.01 | 82 | 1014.1 |
| 20260904204038 | 64 | 241 | 3.0 | 8.0 | 0.00 | 0.22 | 0.01 | 82 | 1014.1 |
| 20260904203540 | 64 | 293 | 2.0 | 5.0 | 0.00 | 0.22 | 0.01 | 82 | 1014.2 |
| 20260904203101 | 65 | 198 | 2.0 | 5.0 | 0.00 | 0.22 | 0.01 | 81 | 1014.1 |
| 20260904202537 | 65 | 214 | 2.0 | 4.0 | 0.00 | 0.22 | 0.01 | 83 | 1014.1 |
| 20260904202037 | 64 | 184 | 2.0 | 7.0 | 0.00 | 0.22 | 0.01 | 84 | 1014.0 |
| 20260904201555 | 64 | 240 | 2.0 | 7.0 | 0.00 | 0.22 | 0.01 | 84 | 1013.9 |
| 20260904201037 | 64 | 281 | 1.0 | 6.0 | 0.00 | 0.22 | 0.01 | 84 | 1013.9 |
| 20260904200536 | 63 | 293 | 2.0 | 6.0 | 0.00 | 0.22 | 0.01 | 83 | 1013.9 |
| 20260904195539 | 64 | 281 | 2.0 | 7.0 | 0.00 | 0.22 | 0.01 | 84 | 1013.8 |
| 20260904195036 | 63 | 0 | 2.0 | 7.0 | 0.00 | 0.22 | 0.01 | 84 | 1013.8 |
| 20260904194555 | 63 | 265 | 2.0 | 7.0 | 0.00 | 0.22 | 0.01 | 84 | 1013.8 |
| 20260904194037 | 63 | 237 | 2.0 | 6.0 | 0.00 | 0.22 | 0.01 | 84 | 1013.8 |
| 20260904193533 | 63 | 196 | 3.0 | 6.0 | 0.00 | 0.22 | 0.01 | 83 | 1013.8 |
| 20260904193056 | 63 | 206 | 1.0 | 5.0 | 0.00 | 0.22 | 0.01 | 85 | 1013.9 |
| 20260904192536 | 63 | 223 | 2.0 | 5.0 | 0.00 | 0.22 | 0.01 | 86 | 1013.8 |
| 20260904192038 | 62 | 256 | 2.0 | 5.0 | 0.00 | 0.22 | 0.01 | 86 | 1013.8 |
| 20260904191551 | 62 | 234 | 1.0 | 5.0 | 0.00 | 0.22 | 0.01 | 86 | 1014.0 |
| 20260904191037 | 62 | 234 | 2.0 | 5.0 | 0.00 | 0.22 | 0.01 | 86 | 1013.9 |
| 20260904190537 | 62 | 221 | 3.0 | 5.0 | 0.00 | 0.22 | 0.01 | 86 | 1013.9 |
| 20260904190051 | 62 | 234 | 2.0 | 5.0 | 0.00 | 0.22 | 0.01 | 87 | 1013.9 |
| 20260904185536 | 61 | 213 | 2.0 | 5.0 | 0.00 | 0.22 | 0.01 | 88 | 1013.9 |
| 20260904185036 | 61 | 235 | 2.0 | 4.0 | 0.00 | 0.22 | 0.01 | 87 | 1013.9 |
| 20260904184552 | 62 | 224 | 2.0 | 4.0 | 0.00 | 0.22 | 0.01 | 88 | 1013.8 |
| 20260904184037 | 61 | 223 | 1.0 | 4.0 | 0.00 | 0.22 | 0.01 | 90 | 1013.8 |
| 20260904183537 | 60 | 282 | 2.0 | 4.0 | 0.00 | 0.22 | 0.01 | 90 | 1013.9 |
| 20260904183054 | 60 | 186 | 1.0 | 3.0 | 0.00 | 0.22 | 0.01 | 91 | 1013.9 |
| 20260904182537 | 60 | 252 | 1.0 | 3.0 | 0.00 | 0.22 | 0.01 | 92 | 1013.8 |
| 20260904182034 | 60 | 234 | 1.0 | 2.0 | 0.00 | 0.22 | 0.01 | 92 | 1013.8 |
| 20260904181555 | 60 | 0 | 1.0 | 3.0 | 0.00 | 0.22 | 0.01 | 93 | 1013.8 |
| 20260904181039 | 59 | 188 | 0.0 | 3.0 | 0.00 | 0.22 | 0.01 | 93 | 1013.7 |
| 20260904180537 | 59 | 188 | 0.0 | 3.0 | 0.00 | 0.22 | 0.01 | 94 | 1013.7 |
| 20260904180058 | 59 | 230 | 1.0 | 3.0 | 0.00 | 0.22 | 0.01 | 95 | 1013.7 |
| 20260904175535 | 58 | 243 | 1.0 | 3.0 | 0.00 | 0.22 | 0.01 | 95 | 1013.8 |
| 20260904175036 | 58 | 0 | 1.0 | 4.0 | 0.00 | 0.22 | 0.01 | 95 | 1013.7 |
| 20260904174606 | 58 | 240 | 1.0 | 4.0 | 0.00 | 0.22 | 0.01 | 95 | 1013.7 |
| 20260904174036 | 58 | 240 | 1.0 | 4.0 | 0.00 | 0.22 | 0.01 | 95 | 1013.7 |
| 20260904173541 | 58 | 279 | 0.0 | 3.0 | 0.00 | 0.22 | 0.01 | 96 | 1013.7 |
| 20260904173101 | 58 | 293 | 2.0 | 3.0 | 0.00 | 0.22 | 0.01 | 96 | 1013.7 |
| 20260904172537 | 58 | 202 | 1.0 | 4.0 | 0.00 | 0.22 | 0.01 | 96 | 1013.7 |
| 20260904172035 | 58 | 180 | 1.0 | 4.0 | 0.00 | 0.22 | 0.01 | 96 | 1013.7 |
| 20260904171558 | 57 | 197 | 0.0 | 3.0 | 0.00 | 0.22 | 0.01 | 96 | 1013.6 |
| 20260904171037 | 58 | 271 | 1.0 | 3.0 | 0.00 | 0.22 | 0.01 | 96 | 1013.6 |
| 20260904170537 | 57 | 169 | 1.0 | 2.0 | 0.00 | 0.22 | 0.01 | 96 | 1013.5 |
| 20260904170057 | 57 | 293 | 0.0 | 2.0 | 0.00 | 0.22 | 0.01 | 96 | 1013.5 |
| 20260904165537 | 57 | 293 | 0.0 | 3.0 | 0.00 | 0.22 | 0.01 | 96 | 1013.4 |
| 20260904165034 | 57 | 0 | 1.0 | 3.0 | 0.00 | 0.22 | 0.01 | 96 | 1013.4 |
| 20260904164554 | 58 | 35 | 0.0 | 3.0 | 0.00 | 0.22 | 0.01 | 96 | 1013.4 |
| 20260904164036 | 57 | 259 | 0.0 | 3.0 | 0.00 | 0.22 | 0.01 | 96 | 1013.4 |
| 20260904163536 | 57 | 259 | 0.0 | 3.0 | 0.00 | 0.22 | 0.01 | 96 | 1013.4 |
| 20260904163050 | 57 | 259 | 1.0 | 3.0 | 0.00 | 0.22 | 0.01 | 96 | 1013.2 |
| 20260904162536 | 57 | 259 | 0.0 | 3.0 | 0.00 | 0.22 | 0.01 | 96 | 1013.1 |
| 20260904162039 | 57 | 259 | 0.0 | 2.0 | 0.00 | 0.22 | 0.01 | 96 | 1013.1 |
| 20260904161548 | 57 | 259 | 0.0 | 2.0 | 0.00 | 0.22 | 0.01 | 96 | 1013.0 |
| 20260904161035 | 57 | 0 | 0.0 | 2.0 | 0.00 | 0.22 | 0.01 | 96 | 1013.0 |
| 20260904160536 | 57 | 259 | 1.0 | 2.0 | 0.00 | 0.22 | 0.01 | 96 | 1013.1 |
| 20260904160100 | 57 | 0 | 0.0 | 1.0 | 0.00 | 0.22 | 0.01 | 96 | 1013.2 |
| 20260904155539 | 57 | 0 | 0.0 | 3.0 | 0.00 | 0.22 | 0.01 | 96 | 1013.2 |
| 20260904155035 | 57 | 0 | 0.0 | 3.0 | 0.00 | 0.22 | 0.01 | 96 | 1013.1 |
| 20260904154554 | 57 | 281 | 0.0 | 3.0 | 0.00 | 0.22 | 0.01 | 96 | 1013.0 |
| 20260904154036 | 57 | 0 | 1.0 | 3.0 | 0.00 | 0.22 | 0.01 | 96 | 1013.0 |
| 20260904153536 | 57 | 289 | 0.0 | 3.0 | 0.00 | 0.22 | 0.01 | 96 | 1013.0 |
| 20260904153110 | 57 | 289 | 0.0 | 3.0 | 0.00 | 0.22 | 0.01 | 96 | 1013.0 |
| 20260904152536 | 57 | 290 | 1.0 | 3.0 | 0.00 | 0.22 | 0.01 | 96 | 1012.9 |
| 20260904152036 | 57 | 275 | 0.0 | 1.0 | 0.00 | 0.22 | 0.01 | 96 | 1012.8 |
| 20260904151600 | 57 | 0 | 0.0 | 2.0 | 0.00 | 0.22 | 0.01 | 96 | 1012.8 |
| 20260904151040 | 57 | 0 | 0.0 | 2.0 | 0.00 | 0.22 | 0.01 | 96 | 1012.8 |
| 20260904150536 | 57 | 275 | 0.0 | 2.0 | 0.00 | 0.22 | 0.01 | 96 | 1012.7 |
| 20260904150056 | 56 | 0 | 0.0 | 2.0 | 0.00 | 0.22 | 0.01 | 96 | 1012.7 |
| 20260904145536 | 56 | 275 | 1.0 | 2.0 | 0.00 | 0.22 | 0.01 | 96 | 1012.5 |
| 20260904145037 | 56 | 0 | 0.0 | 2.0 | 0.00 | 0.22 | 0.01 | 95 | 1012.4 |
| 20260904144554 | 56 | 0 | 0.0 | 2.0 | 0.00 | 0.22 | 0.01 | 95 | 1012.3 |
| 20260904144040 | 56 | 0 | 0.0 | 2.0 | 0.00 | 0.22 | 0.01 | 95 | 1012.4 |
| 20260904143536 | 56 | 275 | 0.0 | 2.0 | 0.00 | 0.22 | 0.01 | 96 | 1012.3 |
| 20260904143051 | 56 | 0 | 0.0 | 2.0 | 0.00 | 0.22 | 0.01 | 96 | 1012.2 |
| 20260904142538 | 56 | 275 | 0.0 | 2.0 | 0.00 | 0.22 | 0.01 | 96 | 1012.2 |
| 20260904142037 | 56 | 275 | 0.0 | 2.0 | 0.00 | 0.22 | 0.01 | 96 | 1012.1 |
| 20260904141610 | 56 | 275 | 0.0 | 2.0 | 0.00 | 0.22 | 0.01 | 96 | 1012.1 |
| 20260904141038 | 56 | 275 | 0.0 | 2.0 | 0.00 | 0.22 | 0.01 | 95 | 1012.0 |
| 20260904140536 | 56 | 275 | 0.0 | 2.0 | 0.00 | 0.22 | 0.01 | 95 | 1011.9 |
| 20260904140100 | 56 | 0 | 0.0 | 2.0 | 0.00 | 0.22 | 0.01 | 95 | 1011.9 |
| 20260904135538 | 56 | 281 | 0.0 | 2.0 | 0.00 | 0.22 | 0.01 | 95 | 1012.0 |
| 20260904135038 | 56 | 281 | 0.0 | 2.0 | 0.00 | 0.22 | 0.01 | 95 | 1011.9 |
| 20260904134554 | 56 | 281 | 1.0 | 2.0 | 0.00 | 0.22 | 0.01 | 95 | 1011.9 |
| 20260904134037 | 56 | 281 | 0.0 | 2.0 | 0.00 | 0.22 | 0.01 | 95 | 1011.8 |
| 20260904133537 | 56 | 0 | 0.0 | 2.0 | 0.00 | 0.22 | 0.01 | 96 | 1011.8 |
| 20260904133054 | 56 | 285 | 0.0 | 1.0 | 0.00 | 0.22 | 0.01 | 96 | 1011.8 |
| 20260904132540 | 56 | 285 | 0.0 | 1.0 | 0.00 | 0.22 | 0.01 | 96 | 1011.7 |
| 20260904132037 | 56 | 0 | 0.0 | 2.0 | 0.00 | 0.22 | 0.01 | 96 | 1011.7 |
| 20260904131612 | 56 | 0 | 0.0 | 2.0 | 0.00 | 0.22 | 0.01 | 96 | 1011.6 |
| 20260904131040 | 56 | 285 | 0.0 | 2.0 | 0.00 | 0.22 | 0.01 | 96 | 1011.6 |
| 20260904130538 | 56 | 0 | 0.0 | 2.0 | 0.00 | 0.22 | 0.01 | 95 | 1011.6 |